When you browse on this site, cookies collect data to enhance your experience and personalize the content and advertising you see.
Visit our Privacy Policy to learn more. By continuing to use the site, you agree to this use of cookies and data.
  • Em Portugal
  • Lista de países
  • Para 7 dias
  • Temperatura da água
  • Mapas de satélite
  • Mapa do tempo
  • Widgets de tempo
  • user-avatar
    Iniciar Sessão

    Previsão horária em Ravda

    Hoje, 25 Maio, Sábado

    Tempo Temperatura Precipitação Vento Pressão Humidade
    00:00 +14°C° 0 mm 3 m/s 756 mmHg 90%
    01:00 +14°C° 0 mm 4 m/s 756 mmHg 90%
    02:00 +14°C° 0 mm 4 m/s 757 mmHg 90%
    03:00 +13°C° 0 mm 4 m/s 757 mmHg 90%
    04:00 +13°C° 0 mm 4 m/s 757 mmHg 89%
    05:00 +13°C° 0 mm 4 m/s 757 mmHg 88%
    06:00 +15°C° 0 mm 4 m/s 757 mmHg 83%
    07:00 +17°C° 0 mm 4 m/s 758 mmHg 79%
    08:00 +19°C° 0 mm 5 m/s 758 mmHg 74%
    09:00 +20°C° 0 mm 4 m/s 758 mmHg 69%
    10:00 +22°C° 0 mm 4 m/s 758 mmHg 65%
    11:00 +23°C° 0 mm 4 m/s 758 mmHg 60%
    12:00 +24°C° 0.6 mm 3 m/s 758 mmHg 61%
    13:00 +25°C° 0.6 mm 3 m/s 758 mmHg 62%
    14:00 +25°C° 0.6 mm 2 m/s 758 mmHg 63%
    15:00 +24°C° 0.7 mm 2 m/s 758 mmHg 66%
    16:00 +24°C° 0.7 mm 2 m/s 758 mmHg 69%
    17:00 +24°C° 0.7 mm 2 m/s 758 mmHg 72%
    18:00 +23°C° 0.1 mm 2 m/s 758 mmHg 75%
    19:00 +20°C° 0.1 mm 2 m/s 758 mmHg 77%
    20:00 +19°C° 0.1 mm 2 m/s 758 mmHg 80%
    21:00 +18°C° 0 mm 2 m/s 758 mmHg 82%
    22:00 +18°C° 0 mm 2 m/s 759 mmHg 84%
    23:00 +17°C° 0 mm 2 m/s 759 mmHg 86%

    Amanhã, 26 Maio, Domingo

    Tempo Temperatura Precipitação Vento Pressão Humidade
    00:00 +17°C° 0 mm 2 m/s 759 mmHg 86%
    01:00 +16°C° 0 mm 3 m/s 759 mmHg 86%
    02:00 +16°C° 0 mm 3 m/s 760 mmHg 87%
    03:00 +16°C° 0 mm 3 m/s 760 mmHg 87%
    04:00 +16°C° 0 mm 3 m/s 760 mmHg 87%
    05:00 +14°C° 0 mm 3 m/s 760 mmHg 86%
    06:00 +17°C° 0 mm 3 m/s 760 mmHg 81%
    07:00 +19°C° 0 mm 3 m/s 761 mmHg 76%
    08:00 +21°C° 0 mm 3 m/s 761 mmHg 71%
    09:00 +24°C° 0 mm 2 m/s 761 mmHg 65%
    10:00 +26°C° 0 mm 1 m/s 761 mmHg 59%
    11:00 +25°C° 0 mm 0 m/s 761 mmHg 53%
    12:00 +28°C° 0 mm 1 m/s 761 mmHg 52%
    13:00 +28°C° 0 mm 2 m/s 761 mmHg 51%
    14:00 +28°C° 0 mm 3 m/s 761 mmHg 50%
    15:00 +27°C° 0 mm 3 m/s 761 mmHg 55%
    16:00 +26°C° 0 mm 4 m/s 761 mmHg 59%
    17:00 +26°C° 0 mm 4 m/s 761 mmHg 63%
    18:00 +23°C° 0 mm 4 m/s 761 mmHg 68%
    19:00 +21°C° 0 mm 3 m/s 761 mmHg 73%
    20:00 +19°C° 0 mm 3 m/s 761 mmHg 78%
    21:00 +19°C° 0 mm 2 m/s 761 mmHg 80%
    22:00 +18°C° 0 mm 2 m/s 762 mmHg 81%
    23:00 +19°C° 0 mm 1 m/s 762 mmHg 83%

    Depois de amanhã, 27 Maio, Segunda-feira

    Tempo Temperatura Precipitação Vento Pressão Humidade
    00:00 +19°C° 0 mm 1 m/s 762 mmHg 84%
    01:00 +18°C° 0 mm 1 m/s 762 mmHg 85%
    02:00 +18°C° 0 mm 1 m/s 762 mmHg 86%
    03:00 +16°C° 0 mm 0 m/s 761 mmHg 86%
    04:00 +16°C° 0 mm 0 m/s 761 mmHg 87%
    05:00 +16°C° 0 mm 0 m/s 761 mmHg 88%
    06:00 +18°C° 0 mm 0 m/s 762 mmHg 82%
    07:00 +22°C° 0 mm 1 m/s 762 mmHg 76%
    08:00 +24°C° 0 mm 1 m/s 762 mmHg 70%
    09:00 +24°C° 0 mm 2 m/s 762 mmHg 65%
    10:00 +25°C° 0 mm 3 m/s 762 mmHg 60%
    11:00 +26°C° 0 mm 3 m/s 762 mmHg 55%
    12:00 +26°C° 0 mm 4 m/s 762 mmHg 56%
    13:00 +26°C° 0 mm 4 m/s 761 mmHg 56%
    14:00 +26°C° 0 mm 5 m/s 761 mmHg 57%
    15:00 +25°C° 0 mm 5 m/s 761 mmHg 60%
    16:00 +23°C° 0 mm 4 m/s 761 mmHg 64%
    17:00 +23°C° 0 mm 4 m/s 761 mmHg 68%
    18:00 +21°C° 0 mm 4 m/s 761 mmHg 76%
    19:00 +19°C° 0 mm 3 m/s 761 mmHg 84%
    20:00 +18°C° 0 mm 3 m/s 761 mmHg 92%
    21:00 +17°C° 0 mm 2 m/s 761 mmHg 92%
    22:00 +17°C° 0 mm 2 m/s 761 mmHg 93%
    23:00 +17°C° 0 mm 2 m/s 761 mmHg 93%

    28 Maio, Terça-feira

    Tempo Temperatura Precipitação Vento Pressão Humidade
    00:00 +17°C° 0 mm 2 m/s 760 mmHg 93%
    01:00 +16°C° 0 mm 2 m/s 760 mmHg 93%
    02:00 +16°C° 0 mm 2 m/s 760 mmHg 93%
    03:00 +16°C° 0 mm 2 m/s 760 mmHg 93%
    04:00 +16°C° 0 mm 1 m/s 759 mmHg 93%
    05:00 +16°C° 0 mm 1 m/s 759 mmHg 93%
    06:00 +19°C° 0 mm 1 m/s 759 mmHg 86%
    07:00 +21°C° 0 mm 1 m/s 759 mmHg 79%
    08:00 +23°C° 0 mm 1 m/s 759 mmHg 72%
    09:00 +24°C° 0.1 mm 2 m/s 759 mmHg 68%
    10:00 +26°C° 0.1 mm 2 m/s 759 mmHg 63%
    11:00 +27°C° 0.1 mm 2 m/s 759 mmHg 59%
    12:00 +27°C° 0 mm 3 m/s 758 mmHg 58%
    13:00 +28°C° 0 mm 4 m/s 758 mmHg 58%
    14:00 +28°C° 0 mm 4 m/s 757 mmHg 58%
    15:00 +28°C° 0 mm 4 m/s 757 mmHg 61%
    16:00 +27°C° 0 mm 4 m/s 757 mmHg 63%
    17:00 +26°C° 0 mm 4 m/s 757 mmHg 66%
    18:00 +25°C° 0 mm 3 m/s 757 mmHg 72%
    19:00 +22°C° 0 mm 3 m/s 757 mmHg 78%
    20:00 +21°C° 0 mm 3 m/s 757 mmHg 83%
    21:00 +20°C° 0 mm 3 m/s 757 mmHg 81%
    22:00 +20°C° 0 mm 3 m/s 757 mmHg 78%
    23:00 +20°C° 0 mm 3 m/s 757 mmHg 75%

    29 Maio, Quarta-feira

    Tempo Temperatura Precipitação Vento Pressão Humidade
    00:00 +19°C° 0 mm 3 m/s 757 mmHg 70%
    01:00 +19°C° 0 mm 3 m/s 757 mmHg 64%
    02:00 +18°C° 0 mm 3 m/s 757 mmHg 59%
    03:00 +18°C° 0 mm 3 m/s 757 mmHg 63%
    04:00 +18°C° 0 mm 3 m/s 757 mmHg 67%
    05:00 +17°C° 0 mm 4 m/s 757 mmHg 71%
    06:00 +19°C° 0 mm 4 m/s 757 mmHg 68%
    07:00 +21°C° 0 mm 4 m/s 757 mmHg 65%
    08:00 +23°C° 0 mm 4 m/s 758 mmHg 62%
    09:00 +26°C° 0 mm 3 m/s 758 mmHg 57%
    10:00 +28°C° 0 mm 3 m/s 758 mmHg 52%
    11:00 +30°C° 0 mm 3 m/s 758 mmHg 47%
    12:00 +30°C° 0 mm 3 m/s 758 mmHg 45%
    13:00 +31°C° 0 mm 3 m/s 758 mmHg 44%
    14:00 +31°C° 0 mm 3 m/s 758 mmHg 42%
    15:00 +31°C° 0 mm 3 m/s 758 mmHg 45%
    16:00 +31°C° 0 mm 2 m/s 758 mmHg 48%
    17:00 +30°C° 0 mm 2 m/s 758 mmHg 51%
    18:00 +28°C° 0 mm 2 m/s 758 mmHg 55%
    19:00 +26°C° 0 mm 2 m/s 758 mmHg 59%
    20:00 +24°C° 0 mm 1 m/s 759 mmHg 63%
    21:00 +24°C° 0 mm 2 m/s 759 mmHg 66%
    22:00 +23°C° 0 mm 2 m/s 759 mmHg 69%
    23:00 +23°C° 0 mm 2 m/s 759 mmHg 72%

    30 Maio, Quinta-feira

    Tempo Temperatura Precipitação Vento Pressão Humidade
    00:00 +21°C° 0 mm 2 m/s 759 mmHg 73%
    01:00 +21°C° 0 mm 2 m/s 759 mmHg 74%
    02:00 +21°C° 0 mm 2 m/s 759 mmHg 75%
    03:00 +20°C° 0 mm 2 m/s 760 mmHg 77%
    04:00 +20°C° 0 mm 2 m/s 760 mmHg 78%
    05:00 +20°C° 0 mm 2 m/s 760 mmHg 79%
    06:00 +23°C° 0 mm 2 m/s 760 mmHg 73%
    07:00 +25°C° 0 mm 2 m/s 760 mmHg 67%
    08:00 +27°C° 0 mm 2 m/s 760 mmHg 61%
    09:00 +28°C° 0 mm 2 m/s 760 mmHg 56%
    10:00 +29°C° 0 mm 2 m/s 760 mmHg 52%
    11:00 +31°C° 0 mm 2 m/s 760 mmHg 47%
    12:00 +31°C° 0 mm 2 m/s 760 mmHg 48%
    13:00 +31°C° 0 mm 3 m/s 760 mmHg 49%
    14:00 +31°C° 0 mm 3 m/s 760 mmHg 50%
    15:00 +30°C° 0.1 mm 3 m/s 760 mmHg 53%
    16:00 +29°C° 0.1 mm 2 m/s 759 mmHg 55%
    17:00 +29°C° 0.1 mm 2 m/s 759 mmHg 58%
    18:00 +27°C° 0 mm 2 m/s 759 mmHg 63%
    19:00 +25°C° 0 mm 1 m/s 759 mmHg 68%
    20:00 +23°C° 0 mm 1 m/s 759 mmHg 73%
    21:00 +23°C° 0 mm 1 m/s 759 mmHg 73%
    22:00 +23°C° 0 mm 1 m/s 759 mmHg 74%
    23:00 +22°C° 0 mm 1 m/s 759 mmHg 75%
    Mostrar mais